When you browse on this site, cookies collect data to enhance your experience and personalize the content and advertising you see.
Visit our Privacy Policy to learn more. By continuing to use the site, you agree to this use of cookies and data.
  • In Belgien
  • Länderverzeichnis
  • Für 7 Tage
  • Wassertemperatur
  • Satellitenkarten
  • Wetterkarte
  • Widgets
  • user-avatar
    Anmelden

    Stündliche Wetter Lesnoe

    Heute, 25 Juni, Dienstag

    Zeit Temperatur Niederschläge Wind Luftdruck Luftfeuchtigkeit
    00:00 +12°C° 0 mm 2 m/S 756 mmHg 74%
    01:00 +10°C° 0 mm 2 m/S 756 mmHg 73%
    02:00 +9°C° 0 mm 2 m/S 756 mmHg 74%
    03:00 +10°C° 0 mm 2 m/S 757 mmHg 73%
    04:00 +12°C° 0 mm 2 m/S 757 mmHg 72%
    05:00 +13°C° 0 mm 2 m/S 757 mmHg 71%
    06:00 +14°C° 0 mm 2 m/S 757 mmHg 67%
    07:00 +15°C° 0 mm 2 m/S 757 mmHg 63%
    08:00 +16°C° 0 mm 2 m/S 757 mmHg 60%
    09:00 +18°C° 0 mm 2 m/S 757 mmHg 54%
    10:00 +19°C° 0 mm 3 m/S 757 mmHg 47%
    11:00 +21°C° 0 mm 3 m/S 757 mmHg 41%
    12:00 +21°C° 0 mm 3 m/S 757 mmHg 42%
    13:00 +21°C° 0 mm 3 m/S 757 mmHg 42%
    14:00 +21°C° 0 mm 3 m/S 757 mmHg 42%
    15:00 +21°C° 0 mm 3 m/S 757 mmHg 44%
    16:00 +20°C° 0 mm 3 m/S 756 mmHg 47%
    17:00 +20°C° 0 mm 2 m/S 756 mmHg 49%
    18:00 +19°C° 0 mm 2 m/S 756 mmHg 56%
    19:00 +18°C° 0 mm 1 m/S 756 mmHg 64%
    20:00 +16°C° 0 mm 1 m/S 756 mmHg 71%
    21:00 +15°C° 0 mm 1 m/S 756 mmHg 73%
    22:00 +14°C° 0 mm 1 m/S 755 mmHg 75%
    23:00 +14°C° 0 mm 1 m/S 755 mmHg 77%

    Morgen, 26 Juni, Mittwoch

    Zeit Temperatur Niederschläge Wind Luftdruck Luftfeuchtigkeit
    00:00 +13°C° 0 mm 2 m/S 755 mmHg 78%
    01:00 +13°C° 0 mm 2 m/S 755 mmHg 80%
    02:00 +12°C° 0 mm 2 m/S 755 mmHg 82%
    03:00 +13°C° 0 mm 2 m/S 754 mmHg 79%
    04:00 +14°C° 0 mm 2 m/S 754 mmHg 75%
    05:00 +14°C° 0 mm 2 m/S 754 mmHg 72%
    06:00 +16°C° 0 mm 2 m/S 753 mmHg 67%
    07:00 +17°C° 0 mm 2 m/S 753 mmHg 62%
    08:00 +18°C° 0 mm 2 m/S 753 mmHg 57%
    09:00 +20°C° 0 mm 2 m/S 753 mmHg 51%
    10:00 +21°C° 0 mm 2 m/S 752 mmHg 44%
    11:00 +23°C° 0 mm 2 m/S 752 mmHg 38%
    12:00 +23°C° 0 mm 2 m/S 751 mmHg 39%
    13:00 +23°C° 0 mm 2 m/S 751 mmHg 41%
    14:00 +23°C° 0 mm 2 m/S 751 mmHg 42%
    15:00 +20°C° 0 mm 3 m/S 750 mmHg 48%
    16:00 +19°C° 0 mm 3 m/S 750 mmHg 54%
    17:00 +18°C° 0 mm 3 m/S 749 mmHg 60%
    18:00 +17°C° 0 mm 2 m/S 749 mmHg 66%
    19:00 +16°C° 0 mm 1 m/S 748 mmHg 72%
    20:00 +14°C° 0 mm 0 m/S 748 mmHg 77%
    21:00 +14°C° 0 mm 1 m/S 747 mmHg 81%
    22:00 +13°C° 0 mm 1 m/S 747 mmHg 84%
    23:00 +12°C° 0 mm 1 m/S 746 mmHg 87%

    übermorgen, 27 Juni, Donnerstag

    Zeit Temperatur Niederschläge Wind Luftdruck Luftfeuchtigkeit
    00:00 +12°C° 0 mm 1 m/S 745 mmHg 87%
    01:00 +12°C° 0 mm 2 m/S 744 mmHg 86%
    02:00 +12°C° 0 mm 2 m/S 744 mmHg 85%
    03:00 +12°C° 0.1 mm 2 m/S 742 mmHg 87%
    04:00 +12°C° 0.1 mm 3 m/S 741 mmHg 90%
    05:00 +12°C° 0.1 mm 3 m/S 740 mmHg 92%
    06:00 +12°C° 0.5 mm 4 m/S 739 mmHg 92%
    07:00 +12°C° 0.5 mm 5 m/S 738 mmHg 92%
    08:00 +13°C° 0.5 mm 6 m/S 738 mmHg 92%
    09:00 +13°C° 0.8 mm 6 m/S 737 mmHg 92%
    10:00 +13°C° 0.8 mm 6 m/S 736 mmHg 93%
    11:00 +13°C° 0.8 mm 6 m/S 735 mmHg 93%
    12:00 +13°C° 0.1 mm 5 m/S 734 mmHg 93%
    13:00 +13°C° 0.1 mm 5 m/S 734 mmHg 92%
    14:00 +14°C° 0.1 mm 5 m/S 733 mmHg 92%
    15:00 +14°C° 0.3 mm 4 m/S 733 mmHg 93%
    16:00 +13°C° 0.3 mm 4 m/S 732 mmHg 94%
    17:00 +13°C° 0.3 mm 3 m/S 732 mmHg 95%
    18:00 +13°C° 0.7 mm 3 m/S 731 mmHg 96%
    19:00 +13°C° 0.7 mm 3 m/S 731 mmHg 97%
    20:00 +14°C° 0.7 mm 2 m/S 731 mmHg 99%
    21:00 +14°C° 1.2 mm 2 m/S 730 mmHg 99%
    22:00 +14°C° 1.2 mm 2 m/S 730 mmHg 99%
    23:00 +14°C° 1.2 mm 2 m/S 730 mmHg 99%

    28 Juni, Freitag

    Zeit Temperatur Niederschläge Wind Luftdruck Luftfeuchtigkeit
    00:00 +13°C° 0.5 mm 3 m/S 729 mmHg 99%
    01:00 +13°C° 0.5 mm 3 m/S 729 mmHg 99%
    02:00 +13°C° 0.5 mm 3 m/S 729 mmHg 98%
    03:00 +12°C° 0.2 mm 3 m/S 728 mmHg 98%
    04:00 +12°C° 0.2 mm 3 m/S 728 mmHg 98%
    05:00 +12°C° 0.2 mm 4 m/S 728 mmHg 98%
    06:00 +12°C° 1 mm 4 m/S 728 mmHg 98%
    07:00 +12°C° 1 mm 4 m/S 728 mmHg 97%
    08:00 +12°C° 1 mm 5 m/S 728 mmHg 97%
    09:00 +10°C° 2 mm 5 m/S 728 mmHg 97%
    10:00 +10°C° 2 mm 5 m/S 728 mmHg 97%
    11:00 +10°C° 2 mm 5 m/S 728 mmHg 96%
    12:00 +9°C° 1 mm 6 m/S 728 mmHg 96%
    13:00 +9°C° 1 mm 6 m/S 728 mmHg 96%
    14:00 +9°C° 1 mm 6 m/S 729 mmHg 96%
    15:00 +9°C° 0.9 mm 6 m/S 729 mmHg 96%
    16:00 +9°C° 0.9 mm 6 m/S 729 mmHg 95%
    17:00 +9°C° 0.9 mm 6 m/S 729 mmHg 95%
    18:00 +9°C° 1.3 mm 7 m/S 730 mmHg 95%
    19:00 +9°C° 1.3 mm 7 m/S 730 mmHg 95%
    20:00 +8°C° 1.3 mm 7 m/S 730 mmHg 96%
    21:00 +8°C° 2.1 mm 7 m/S 730 mmHg 96%
    22:00 +8°C° 2.1 mm 7 m/S 730 mmHg 96%
    23:00 +8°C° 2.1 mm 7 m/S 730 mmHg 96%

    29 Juni, Samstag

    Zeit Temperatur Niederschläge Wind Luftdruck Luftfeuchtigkeit
    00:00 +8°C° 1 mm 7 m/S 730 mmHg 96%
    01:00 +6°C° 1 mm 7 m/S 730 mmHg 96%
    02:00 +7°C° 1 mm 6 m/S 730 mmHg 96%
    03:00 +7°C° 1.5 mm 6 m/S 730 mmHg 96%
    04:00 +6°C° 1.5 mm 7 m/S 730 mmHg 96%
    05:00 +6°C° 1.5 mm 7 m/S 730 mmHg 96%
    06:00 +6°C° 0.8 mm 7 m/S 731 mmHg 96%
    07:00 +6°C° 0.8 mm 7 m/S 731 mmHg 96%
    08:00 +5°C° 0.8 mm 6 m/S 732 mmHg 96%
    09:00 +5°C° 0.4 mm 6 m/S 732 mmHg 95%
    10:00 +5°C° 0.4 mm 6 m/S 733 mmHg 95%
    11:00 +5°C° 0.4 mm 6 m/S 734 mmHg 94%
    12:00 +5°C° 0.2 mm 6 m/S 734 mmHg 93%
    13:00 +7°C° 0.2 mm 6 m/S 735 mmHg 92%
    14:00 +7°C° 0.2 mm 6 m/S 736 mmHg 91%
    15:00 +7°C° 0 mm 5 m/S 736 mmHg 86%
    16:00 +8°C° 0 mm 5 m/S 737 mmHg 81%
    17:00 +8°C° 0 mm 5 m/S 737 mmHg 76%
    18:00 +8°C° 0 mm 4 m/S 738 mmHg 75%
    19:00 +9°C° 0 mm 3 m/S 738 mmHg 75%
    20:00 +10°C° 0 mm 2 m/S 738 mmHg 74%
    21:00 +9°C° 0 mm 2 m/S 739 mmHg 77%
    22:00 +8°C° 0 mm 2 m/S 739 mmHg 80%
    23:00 +7°C° 0 mm 2 m/S 739 mmHg 84%

    30 Juni, Sonntag

    Zeit Temperatur Niederschläge Wind Luftdruck Luftfeuchtigkeit
    00:00 +6°C° 0 mm 2 m/S 739 mmHg 86%
    01:00 +5°C° 0 mm 2 m/S 740 mmHg 87%
    02:00 +5°C° 0 mm 2 m/S 740 mmHg 89%
    03:00 +6°C° 0 mm 2 m/S 740 mmHg 83%
    04:00 +7°C° 0 mm 2 m/S 740 mmHg 77%
    05:00 +8°C° 0 mm 3 m/S 741 mmHg 71%
    06:00 +10°C° 0 mm 3 m/S 741 mmHg 63%
    07:00 +12°C° 0 mm 3 m/S 741 mmHg 55%
    08:00 +14°C° 0 mm 3 m/S 741 mmHg 47%
    09:00 +15°C° 0 mm 4 m/S 742 mmHg 44%
    10:00 +17°C° 0 mm 4 m/S 742 mmHg 42%
    11:00 +19°C° 0 mm 4 m/S 742 mmHg 39%
    12:00 +19°C° 0 mm 4 m/S 742 mmHg 39%
    13:00 +20°C° 0 mm 4 m/S 743 mmHg 39%
    14:00 +20°C° 0 mm 4 m/S 743 mmHg 39%
    15:00 +20°C° 0 mm 3 m/S 743 mmHg 41%
    16:00 +20°C° 0 mm 3 m/S 743 mmHg 43%
    17:00 +20°C° 0 mm 2 m/S 743 mmHg 45%
    18:00 +18°C° 0 mm 2 m/S 743 mmHg 53%
    19:00 +16°C° 0 mm 1 m/S 744 mmHg 62%
    20:00 +13°C° 0 mm 0 m/S 744 mmHg 70%
    21:00 +12°C° 0 mm 0 m/S 744 mmHg 73%
    22:00 +11°C° 0 mm 0 m/S 744 mmHg 76%
    23:00 +9°C° 0 mm 0 m/S 744 mmHg 79%
    Mehr zeigen